CW0927 Weather Reports


Display with metric or nautical units.
time (UTC)temp
F
wind
direction
speed
MPH
gust
MPH
rain 1hr
in
rain 24hr
in
rain mn
in
humidity
%
barometer
mb
20260502203343 70 172 1.0 7.0 0.09 0.16 0.16 89 1011.7
20260502202847 70 204 2.0 10.0 0.09 0.15 0.15 88 1012.2
20260502202345 71 268 6.0 12.0 0.07 0.13 0.13 88 1012.7
20260502201846 71 267 6.0 15.0 0.05 0.11 0.11 87 1012.7
20260502201347 71 244 6.0 15.0 0.04 0.09 0.09 87 1013.0
20260502200827 71 325 4.0 14.0 0.02 0.07 0.07 86 1013.0
20260502200332 71 253 6.0 10.0 0.02 0.07 0.07 86 1013.2
20260502195831 71 225 4.0 9.0 0.02 0.07 0.07 86 1012.9
20260502195334 71 266 2.0 8.0 0.02 0.07 0.07 86 1012.9
20260502194845 71 261 3.0 8.0 0.02 0.07 0.07 86 1013.0
20260502194346 71 244 4.0 9.0 0.02 0.07 0.07 85 1013.1
20260502193822 71 289 3.0 9.0 0.02 0.07 0.07 86 1013.3
20260502193353 71 259 4.0 9.0 0.02 0.07 0.07 85 1013.0
20260502192825 71 304 4.0 14.0 0.01 0.06 0.06 85 1012.7
20260502192324 72 265 5.0 16.0 0.01 0.06 0.06 84 1012.7
20260502191823 72 292 6.0 18.0 0.01 0.06 0.06 83 1012.8
20260502191324 73 183 8.0 22.0 0.00 0.05 0.05 80 1013.2
20260502190824 73 296 9.0 22.0 0.00 0.05 0.05 79 1013.3
20260502190330 74 223 10.0 22.0 0.00 0.05 0.05 78 1013.6
20260502185830 76 276 9.0 23.0 0.00 0.05 0.05 77 1013.6
20260502185332 78 355 9.0 23.0 0.00 0.05 0.05 76 1013.6
20260502184833 79 257 4.0 10.0 0.00 0.05 0.05 81 1012.8
20260502184334 78 254 0.0 5.0 0.00 0.05 0.05 81 1012.3
20260502183834 78 257 1.0 6.0 0.01 0.05 0.05 81 1012.4
20260502183336 78 263 2.0 6.0 0.04 0.05 0.05 80 1012.3
20260502182836 78 248 0.0 3.0 0.04 0.05 0.05 81 1012.4
20260502182403 78 254 1.0 3.0 0.05 0.05 0.05 80 1012.3
20260502181845 78 248 2.0 8.0 0.05 0.05 0.05 80 1012.3
20260502181348 78 220 2.0 8.0 0.05 0.05 0.05 81 1012.4
20260502180851 78 238 0.0 5.0 0.05 0.05 0.05 81 1012.4
20260502180333 78 213 1.0 6.0 0.05 0.05 0.05 80 1012.2
20260502170332 87 254 3.0 13.0 0.00 0.00 0.00 63 1012.2
20260502164341 86 229 7.0 26.0 0.00 0.00 0.00 63 1012.2
20260502163842 86 261 6.0 26.0 0.00 0.00 0.00 64 1012.2
20260502163343 86 215 5.0 17.0 0.00 0.00 0.00 63 1012.3
20260502162844 86 264 4.0 19.0 0.00 0.00 0.00 63 1012.3
20260502162338 86 171 8.0 20.0 0.00 0.00 0.00 64 1012.2
20260502161839 86 274 6.0 12.0 0.00 0.00 0.00 63 1012.1
20260502161341 86 175 5.0 13.0 0.00 0.00 0.00 64 1012.1
20260502160823 86 225 5.0 16.0 0.00 0.00 0.00 64 1012.1
20260502160332 86 240 5.0 16.0 0.00 0.00 0.00 64 1012.3
20260502152339 83 282 5.0 13.0 0.00 0.00 0.00 66 1012.5
20260502151841 83 244 4.0 15.0 0.00 0.00 0.00 66 1012.6
20260502151323 83 205 6.0 15.0 0.00 0.00 0.00 65 1012.7
20260502150824 82 277 3.0 8.0 0.00 0.00 0.00 68 1012.8
20260502150351 81 98 1.0 9.0 0.00 0.00 0.00 69 1012.6
20260502130325 75 148 3.0 8.0 0.00 0.00 0.00 86 1012.3
20260502123346 74 202 1.0 6.0 0.00 0.00 0.00 92 1012.2
20260502122849 73 191 1.0 8.0 0.00 0.00 0.00 91 1012.1
20260502122349 73 174 2.0 8.0 0.00 0.00 0.00 92 1012.1
20260502121850 73 240 1.0 5.0 0.00 0.00 0.00 93 1012.1
20260502121331 73 221 2.0 6.0 0.00 0.00 0.00 93 1012.1
20260502120833 72 178 2.0 6.0 0.00 0.00 0.00 93 1012.0
20260502120403 72 159 1.0 6.0 0.00 0.00 0.00 93 1012.0
20260502115843 72 169 0.0 4.0 0.00 0.00 0.00 93 1012.0
20260502115344 72 139 2.0 4.0 0.00 0.00 0.00 93 1011.9
20260502114847 72 188 1.0 5.0 0.00 0.00 0.00 94 1011.9
20260502113841 71 150 1.0 4.0 0.00 0.00 0.00 93 1011.9
20260502113343 71 198 1.0 4.0 0.00 0.00 0.00 93 1011.9
20260502112844 71 172 0.0 4.0 0.00 0.00 0.00 93 1012.0
20260502112343 71 180 1.0 3.0 0.00 0.00 0.00 93 1011.9
20260502111824 71 159 0.0 2.0 0.00 0.00 0.00 93 1011.7
20260502111325 71 180 0.0 2.0 0.00 0.00 0.00 93 1011.8
20260502110828 71 154 1.0 2.0 0.00 0.00 0.00 93 1011.6
20260502110333 71 169 0.0 2.0 0.00 0.00 0.00 93 1011.4
20260502105831 71 169 0.0 2.0 0.00 0.00 0.00 93 1011.3
20260502105401 71 163 0.0 3.0 0.00 0.00 0.00 93 1011.3
20260502104841 71 160 1.0 3.0 0.00 0.00 0.00 93 1011.2
20260502104341 71 188 0.0 1.0 0.00 0.00 0.00 93 1011.2
20260502103843 71 188 0.0 0.0 0.00 0.00 0.00 93 1011.1
20260502103340 71 188 0.0 0.0 0.00 0.00 0.00 93 1010.9
20260502102842 71 188 0.0 1.0 0.00 0.00 0.00 93 1011.0
20260502102343 71 198 0.0 1.0 0.00 0.00 0.00 92 1011.1
20260502101843 70 246 0.0 0.0 0.00 0.00 0.00 92 1011.2
20260502101326 70 246 0.0 0.0 0.00 0.00 0.00 92 1011.2
20260502100857 70 246 0.0 0.0 0.00 0.00 0.00 92 1011.2
20260502100340 70 246 0.0 0.0 0.00 0.00 0.00 92 1011.2
20260502091337 71 246 0.0 0.0 0.00 0.00 0.00 91 1011.9
20260502090839 71 246 0.0 0.0 0.00 0.00 0.00 92 1011.9
20260502090324 71 246 0.0 0.0 0.00 0.00 0.00 92 1011.9
20260502071358 72 272 1.0 3.0 0.00 0.00 0.00 89 1012.2
20260502070846 72 261 2.0 4.0 0.00 0.00 0.00 89 1012.2
20260502070341 72 260 1.0 4.0 0.00 0.00 0.00 89 1012.1
20260502065844 72 258 1.0 3.0 0.00 0.00 0.00 89 1012.1
20260502065324 72 267 0.0 2.0 0.00 0.00 0.00 88 1012.3
20260502064825 72 267 1.0 3.0 0.00 0.00 0.00 88 1012.3
20260502064327 72 266 1.0 3.0 0.00 0.00 0.00 88 1012.3
20260502063832 72 257 0.0 2.0 0.00 0.00 0.00 88 1012.4
20260502063332 73 268 0.0 1.0 0.00 0.00 0.00 87 1012.5
20260502062833 73 271 0.0 3.0 0.00 0.00 0.00 87 1012.5
20260502062331 73 275 1.0 3.0 0.00 0.00 0.00 87 1012.7
20260502061859 73 256 1.0 4.0 0.00 0.00 0.00 86 1012.7
20260502061339 73 254 2.0 4.0 0.00 0.00 0.00 86 1012.7
20260502060840 74 251 1.0 3.0 0.00 0.00 0.00 85 1012.6
20260502060340 74 255 1.0 3.0 0.00 0.00 0.00 85 1012.7
20260502055838 74 246 1.0 4.0 0.00 0.00 0.00 84 1012.7
20260502055339 74 289 2.0 4.0 0.00 0.00 0.00 83 1012.8
20260502054841 74 261 1.0 3.0 0.00 0.00 0.00 83 1012.8
20260502054338 74 257 2.0 3.0 0.00 0.00 0.00 82 1012.7
20260502053841 74 257 1.0 5.0 0.00 0.00 0.00 82 1012.8
20260502053339 74 257 1.0 5.0 0.00 0.00 0.00 82 1012.9
20260502052842 74 240 2.0 5.0 0.00 0.00 0.00 81 1012.9
20260502052341 75 251 1.0 4.0 0.00 0.00 0.00 80 1012.9
20260502051843 75 252 1.0 4.0 0.00 0.00 0.00 80 1013.0
20260502051325 75 259 1.0 3.0 0.00 0.00 0.00 80 1013.1
20260502050852 75 253 1.0 3.0 0.00 0.00 0.00 79 1012.9
20260502050351 75 245 0.0 3.0 0.00 0.00 0.00 78 1012.9
20260502045832 75 245 0.0 3.0 0.00 0.00 0.00 78 1013.0
20260502045332 75 263 1.0 2.0 0.00 0.00 0.00 77 1013.0
20260502044834 75 271 0.0 3.0 0.00 0.00 0.00 77 1013.0
20260502044332 75 256 1.0 3.0 0.00 0.00 0.00 76 1012.9
20260502043903 76 250 1.0 2.0 0.00 0.00 0.00 76 1013.0
20260502043343 76 251 0.0 1.0 0.00 0.00 0.00 76 1012.9
20260502042845 76 251 0.0 1.0 0.00 0.00 0.00 75 1012.8
20260502042343 76 250 0.0 1.0 0.00 0.00 0.00 74 1012.9
20260502041844 76 250 0.0 1.0 0.00 0.00 0.00 73 1012.8
20260502041345 76 250 0.0 2.0 0.00 0.00 0.00 73 1012.9
20260502040847 77 250 1.0 2.0 0.00 0.00 0.00 73 1012.8
20260502040348 77 250 0.0 0.0 0.00 0.00 0.00 72 1012.7
20260502035833 77 250 0.0 0.0 0.00 0.00 0.00 71 1012.7
20260502035334 77 250 0.0 0.0 0.00 0.00 0.00 71 1012.7
20260502034901 77 250 0.0 0.0 0.00 0.00 0.00 70 1012.8
20260502034342 77 250 0.0 1.0 0.00 0.00 0.00 70 1012.7
20260502033827 78 250 0.0 1.0 0.00 0.00 0.00 70 1012.8
20260502033359 78 250 0.0 1.0 0.00 0.00 0.00 69 1012.9
20260502032838 78 250 0.0 1.0 0.00 0.00 0.00 69 1013.0
20260502032339 78 250 0.0 2.0 0.00 0.00 0.00 69 1013.0
20260502031840 78 249 1.0 2.0 0.00 0.00 0.00 69 1013.0
20260502031344 78 277 0.0 1.0 0.00 0.00 0.00 67 1013.0
20260502030847 79 283 0.0 0.0 0.00 0.00 0.00 67 1013.0
20260502030348 79 283 0.0 0.0 0.00 0.00 0.00 67 1013.0
20260502025849 79 283 0.0 0.0 0.00 0.00 0.00 66 1013.0
20260502025347 80 283 0.0 0.0 0.00 0.00 0.00 65 1012.9
20260502024823 80 283 0.0 0.0 0.00 0.00 0.00 64 1012.9
20260502024327 80 283 0.0 0.0 0.00 0.00 0.00 64 1012.9
20260502023829 80 283 0.0 1.0 0.00 0.00 0.00 64 1013.0
20260502023330 81 283 0.0 1.0 0.00 0.00 0.00 63 1012.9
20260502022832 81 283 0.0 1.0 0.00 0.00 0.00 63 1012.9
20260502022340 81 283 0.0 1.0 0.00 0.00 0.00 63 1012.9
20260502021824 81 283 0.0 3.0 0.00 0.00 0.00 62 1012.9
20260502021325 81 283 0.0 3.0 0.00 0.00 0.00 62 1012.9
20260502020824 82 269 0.0 3.0 0.00 0.00 0.00 62 1012.8
20260502020326 82 269 0.0 4.0 0.00 0.00 0.00 61 1012.9
20260502015828 82 291 0.0 3.0 0.00 0.00 0.00 61 1012.9
20260502015331 82 284 1.0 3.0 0.00 0.00 0.00 61 1013.0
20260502014857 82 306 1.0 4.0 0.00 0.00 0.00 60 1012.9
20260502014336 82 318 1.0 4.0 0.00 0.00 0.00 60 1013.0
20260502013836 82 271 0.0 2.0 0.00 0.00 0.00 60 1012.9
20260502013338 83 316 1.0 3.0 0.00 0.00 0.00 59 1012.8
20260502012908 83 311 1.0 3.0 0.00 0.00 0.00 59 1012.8
20260502012326 83 329 0.0 2.0 0.00 0.00 0.00 59 1012.8
20260502011830 83 329 1.0 3.0 0.00 0.00 0.00 58 1012.7
20260502011402 83 324 0.0 4.0 0.00 0.00 0.00 58 1012.6
20260502010843 83 320 1.0 4.0 0.00 0.00 0.00 58 1012.7
20260502010344 84 329 0.0 4.0 0.00 0.00 0.00 58 1012.6
20260502005824 84 330 1.0 5.0 0.00 0.00 0.00 57 1012.6
20260502005326 84 293 0.0 5.0 0.00 0.00 0.00 57 1012.5
20260502004826 84 288 1.0 5.0 0.00 0.00 0.00 57 1012.4
20260502004329 84 247 1.0 5.0 0.00 0.00 0.00 57 1012.3
20260502003829 84 295 1.0 5.0 0.00 0.00 0.00 57 1012.2
20260502003328 84 253 1.0 3.0 0.00 0.00 0.00 57 1012.1
20260502002827 85 290 1.0 3.0 0.00 0.00 0.00 57 1011.9
20260502002329 85 274 1.0 4.0 0.00 0.00 0.00 57 1011.8
20260502001832 85 266 2.0 5.0 0.00 0.00 0.00 57 1011.7
20260502001403 85 14 2.0 8.0 0.00 0.00 0.00 56 1011.6
20260502000912 85 269 2.0 8.0 0.00 0.00 0.00 56 1011.6
20260502000350 86 246 1.0 11.0 0.00 0.00 0.00 55 1011.5
20260501235831 86 294 4.0 11.0 0.00 0.00 0.00 54 1011.4
20260501235331 86 306 2.0 8.0 0.00 0.00 0.00 54 1011.4
20260501234900 87 262 2.0 6.0 0.00 0.00 0.00 53 1011.3
20260501234340 87 254 3.0 10.0 0.00 0.00 0.00 52 1011.3
20260501233841 87 311 4.0 10.0 0.00 0.00 0.00 51 1011.2
20260501233344 88 274 1.0 8.0 0.00 0.00 0.00 50 1011.1
20260501232825 88 300 2.0 9.0 0.00 0.00 0.00 50 1011.0
20260501232355 88 306 2.0 9.0 0.00 0.00 0.00 49 1011.1
20260501231837 89 317 2.0 5.0 0.00 0.00 0.00 49 1011.0
20260501231407 89 214 1.0 4.0 0.00 0.00 0.00 49 1010.9
20260501230827 89 288 1.0 8.0 0.00 0.00 0.00 49 1010.8
20260501230334 89 241 2.0 8.0 0.00 0.00 0.00 48 1010.8
20260501225836 90 296 2.0 5.0 0.00 0.00 0.00 48 1010.7
20260501225338 90 286 2.0 6.0 0.00 0.00 0.00 48 1010.7
20260501224841 90 298 2.0 6.0 0.00 0.00 0.00 48 1010.6
20260501224341 90 254 3.0 6.0 0.00 0.00 0.00 48 1010.5
20260501223839 91 340 2.0 10.0 0.00 0.00 0.00 48 1010.5
20260501223338 91 316 3.0 8.0 0.00 0.00 0.00 48 1010.5
20260501222838 91 323 2.0 8.0 0.00 0.00 0.00 47 1010.5
20260501222339 91 272 2.0 7.0 0.00 0.00 0.00 47 1010.4
20260501221905 91 309 1.0 10.0 0.00 0.00 0.00 46 1010.3
20260501221324 92 270 1.0 10.0 0.00 0.00 0.00 45 1010.3
20260501220849 92 254 4.0 7.0 0.00 0.00 0.00 46 1010.3
20260501220338 92 286 2.0 8.0 0.00 0.00 0.00 45 1010.3
20260501215839 92 26 2.0 9.0 0.00 0.00 0.00 46 1010.3
20260501215342 92 204 3.0 9.0 0.00 0.00 0.00 45 1010.3
20260501214846 92 244 4.0 9.0 0.00 0.00 0.00 45 1010.4
20260501214348 92 318 2.0 8.0 0.00 0.00 0.00 45 1010.4
20260501213828 92 299 3.0 9.0 0.00 0.00 0.00 46 1010.5
20260501213357 92 261 2.0 10.0 0.00 0.00 0.00 46 1010.4
20260501212837 92 243 6.0 10.0 0.00 0.00 0.00 45 1010.3
20260501212340 91 253 1.0 5.0 0.00 0.00 0.00 47 1010.3
20260501211907 91 13 0.0 7.0 0.00 0.00 0.00 47 1010.4
20260501211348 91 247 3.0 7.0 0.00 0.00 0.00 46 1010.5
20260501210850 92 314 1.0 11.0 0.00 0.00 0.00 46 1010.4
20260501210352 91 276 3.0 7.0 0.00 0.00 0.00 47 1010.4
20260501205852 91 206 2.0 7.0 0.00 0.00 0.00 47 1010.4
20260501205349 91 279 2.0 7.0 0.00 0.00 0.00 47 1010.5
20260501204831 91 257 2.0 10.0 0.00 0.00 0.00 47 1010.7
20260501204333 92 253 2.0 11.0 0.00 0.00 0.00 46 1010.5
20260501203834 92 285 3.0 9.0 0.00 0.00 0.00 47 1010.7